GW2468 Weather Reports


time (UTC)temp
C
wind
direction
speed
KPH
gust
KPH
rain 1hr
cm
rain 24hr
cm
rain mn
cm
humidity
%
barometer
mb
20260504130650 13 286 4.8 4.8 0.00 0.00 0.00 48 1013.1
20260504130146 13 282 3.2 4.8 0.00 0.00 0.00 47 1013.0
20260504120110 10 291 3.2 3.2 0.00 0.00 0.00 54 1013.0
20260504110538 6 342 0.0 0.0 0.00 0.00 0.00 71 1013.1
20260504100454 5 346 0.0 0.0 0.00 0.00 0.00 72 1012.8
20260504081847 3 346 0.0 0.0 0.00 0.00 0.00 75 1012.8
20260504081343 4 346 0.0 0.0 0.00 0.00 0.00 75 1013.2
20260504080839 4 346 0.0 0.0 0.00 0.00 0.00 74 1013.1
20260504080337 4 346 0.0 0.0 0.00 0.00 0.00 74 1013.0
20260504070304 5 346 0.0 0.0 0.00 0.00 0.00 73 1012.8
20260504060224 5 340 0.0 0.0 0.00 0.00 0.00 73 1012.8
20260504050652 5 340 0.0 0.0 0.00 0.00 0.00 68 1012.6
20260504050149 5 340 0.0 0.0 0.00 0.00 0.00 68 1012.6
20260504045646 6 340 0.0 0.0 0.00 0.00 0.00 67 1012.8
20260504045146 6 340 0.0 0.0 0.00 0.00 0.00 67 1012.8
20260504044644 6 340 0.0 0.0 0.00 0.00 0.00 65 1012.7
20260504044141 6 340 0.0 0.0 0.00 0.00 0.00 66 1012.9
20260504043638 6 340 0.0 0.0 0.00 0.00 0.00 65 1012.7
20260504043135 6 346 0.0 0.0 0.00 0.00 0.00 65 1012.5
20260504042632 6 346 0.0 0.0 0.00 0.00 0.00 65 1012.7
20260504042129 6 346 0.0 0.0 0.00 0.00 0.00 66 1012.8
20260504041625 6 346 0.0 0.0 0.00 0.00 0.00 66 1012.8
20260504041121 6 346 0.0 0.0 0.00 0.00 0.00 65 1012.4
20260504040619 5 346 0.0 0.0 0.00 0.00 0.00 67 1012.5
20260504040115 5 346 0.0 1.6 0.00 0.00 0.00 67 1012.5
20260504035612 5 346 0.0 0.0 0.00 0.00 0.00 68 1012.3
20260504035108 5 346 0.0 0.0 0.00 0.00 0.00 67 1012.3
20260504034607 5 346 0.0 0.0 0.00 0.00 0.00 67 1012.3
20260504034103 5 346 0.0 0.0 0.00 0.00 0.00 66 1012.3
20260504033601 5 346 0.0 0.0 0.00 0.00 0.00 66 1012.4
20260504033058 5 346 0.0 0.0 0.00 0.00 0.00 67 1012.4
20260504032555 5 346 0.0 0.0 0.00 0.00 0.00 66 1012.5
20260504032052 5 346 0.0 0.0 0.00 0.00 0.00 68 1012.4
20260504031549 5 346 0.0 0.0 0.00 0.00 0.00 67 1012.4
20260504031045 6 346 0.0 0.0 0.00 0.00 0.00 67 1012.4
20260504030542 6 346 0.0 0.0 0.00 0.00 0.00 67 1012.5
20260504030038 6 346 0.0 0.0 0.00 0.00 0.00 67 1012.4
20260504025536 6 346 0.0 0.0 0.00 0.00 0.00 69 1012.6
20260504025032 6 346 0.0 0.0 0.00 0.00 0.00 69 1012.3
20260504024529 6 346 0.0 0.0 0.00 0.00 0.00 67 1012.5
20260504024026 6 346 0.0 0.0 0.00 0.00 0.00 67 1012.4
20260504023523 6 346 0.0 0.0 0.00 0.00 0.00 66 1012.7
20260504023019 6 346 0.0 0.0 0.00 0.00 0.00 64 1012.5
20260504022514 6 346 0.0 0.0 0.00 0.00 0.00 65 1012.6
20260504022011 6 346 0.0 0.0 0.00 0.00 0.00 63 1012.5
20260504021509 6 346 0.0 0.0 0.00 0.00 0.00 63 1012.4
20260504021006 6 346 0.0 0.0 0.00 0.00 0.00 64 1012.6
20260504020503 6 347 0.0 0.0 0.00 0.00 0.00 64 1012.5
20260504015959 6 346 0.0 0.0 0.00 0.00 0.00 64 1012.5
20260504015455 6 342 0.0 1.6 0.00 0.00 0.00 66 1012.6
20260504014951 6 341 0.0 0.0 0.00 0.00 0.00 67 1012.7
20260504014447 6 342 0.0 0.0 0.00 0.00 0.00 67 1012.4
20260504013944 6 342 0.0 0.0 0.00 0.00 0.00 67 1012.3
20260504013443 6 342 0.0 0.0 0.00 0.00 0.00 67 1012.1
20260504012938 6 343 0.0 0.0 0.00 0.00 0.00 63 1012.3
20260504012437 7 343 0.0 0.0 0.00 0.00 0.00 65 1012.2
20260504011934 7 342 0.0 0.0 0.00 0.00 0.00 62 1012.4
20260504011431 7 343 0.0 0.0 0.00 0.00 0.00 59 1012.1
20260504010927 7 343 0.0 0.0 0.00 0.00 0.00 59 1012.1
20260504010423 7 343 0.0 0.0 0.00 0.00 0.00 57 1012.2
20260504005919 8 343 0.0 0.0 0.00 0.00 0.00 58 1012.2
20260504005416 8 343 0.0 0.0 0.00 0.00 0.00 57 1012.2
20260504004913 8 343 0.0 0.0 0.00 0.00 0.00 56 1012.0
20260504004411 8 343 0.0 0.0 0.00 0.00 0.00 57 1012.1
20260504003908 8 346 0.0 0.0 0.00 0.00 0.00 56 1012.0
20260504003404 8 343 0.0 0.0 0.00 0.00 0.00 55 1011.9
20260504002901 8 343 0.0 0.0 0.00 0.00 0.00 55 1011.5
20260504002358 8 343 0.0 0.0 0.00 0.00 0.00 55 1011.6
20260504001855 8 343 0.0 0.0 0.00 0.00 0.00 54 1011.5
20260504001353 9 343 0.0 0.0 0.00 0.00 0.00 54 1011.5
20260504000849 9 343 0.0 0.0 0.00 0.00 0.00 54 1011.8
20260504000346 9 343 0.0 0.0 0.00 0.00 0.00 53 1011.6
20260503235844 10 343 0.0 0.0 0.00 0.00 0.00 53 1011.4
20260503235341 10 343 0.0 0.0 0.00 0.00 0.00 52 1011.4
20260503234838 10 343 0.0 0.0 0.00 0.00 0.00 52 1011.2
20260503234336 10 343 0.0 0.0 0.00 0.00 0.00 51 1011.1
20260503233834 10 343 0.0 0.0 0.00 0.00 0.00 51 1011.2
20260503233330 10 348 1.6 3.2 0.00 0.00 0.00 50 1011.2
20260503232826 10 309 0.0 0.0 0.00 0.00 0.00 49 1011.1
20260503232324 11 309 0.0 1.6 0.00 0.00 0.00 49 1011.3
20260503231821 11 299 0.0 1.6 0.00 0.00 0.00 49 1011.5
20260503231318 11 322 1.6 3.2 0.00 0.00 0.00 49 1011.1
20260503230814 11 326 1.6 1.6 0.00 0.00 0.00 48 1011.3
20260503230311 11 290 1.6 1.6 0.00 0.00 0.00 47 1011.2
20260503225809 11 306 4.8 4.8 0.00 0.00 0.00 46 1011.2
20260503225305 11 332 4.8 4.8 0.00 0.00 0.00 46 1011.0
20260503224801 11 324 3.2 3.2 0.00 0.00 0.00 47 1011.1
20260503224259 11 326 3.2 3.2 0.00 0.00 0.00 45 1011.1
20260503223756 11 325 1.6 1.6 0.00 0.00 0.00 45 1010.9
20260503223254 12 295 3.2 3.2 0.00 0.00 0.00 46 1011.1
20260503222749 12 340 1.6 3.2 0.00 0.00 0.00 45 1011.1
20260503222247 12 305 1.6 3.2 0.00 0.00 0.00 44 1011.3
20260503221746 12 349 1.6 1.6 0.00 0.00 0.00 44 1011.2
20260503221243 12 301 4.8 4.8 0.00 0.00 0.00 43 1011.0
20260503220740 12 351 0.0 0.0 0.00 0.00 0.00 42 1011.1
20260503220237 12 286 3.2 3.2 0.00 0.00 0.00 41 1011.1
20260503215733 12 317 4.8 8.0 0.00 0.00 0.00 41 1011.0
20260503215230 12 10 6.4 11.3 0.00 0.00 0.00 42 1010.9
20260503214729 12 11 8.0 11.3 0.00 0.00 0.00 41 1010.8
20260503214225 12 327 6.4 8.0 0.00 0.00 0.00 40 1010.9
20260503213723 12 296 1.6 3.2 0.00 0.00 0.00 42 1010.9
20260503213220 12 318 1.6 3.2 0.00 0.00 0.00 42 1010.8
20260503212717 11 275 3.2 3.2 0.00 0.00 0.00 41 1010.8
20260503212215 12 63 4.8 4.8 0.00 0.00 0.00 41 1010.6
20260503211712 12 319 4.8 4.8 0.00 0.00 0.00 39 1010.6
20260503211208 12 12 4.8 4.8 0.00 0.00 0.00 39 1010.6
20260503210704 12 274 1.6 3.2 0.00 0.00 0.00 38 1010.5
20260503210201 13 340 6.4 8.0 0.00 0.00 0.00 38 1010.4
20260503205656 12 276 4.8 4.8 0.00 0.00 0.00 38 1010.6
20260503205152 12 77 4.8 4.8 0.00 0.00 0.00 39 1010.6
20260503204649 12 357 4.8 4.8 0.00 0.00 0.00 39 1010.6
20260503204147 12 273 6.4 9.7 0.00 0.00 0.00 39 1010.5
20260503203644 12 267 3.2 4.8 0.00 0.00 0.00 39 1010.9
20260503203142 12 335 3.2 4.8 0.00 0.00 0.00 39 1010.8
20260503202639 12 0 3.2 4.8 0.00 0.00 0.00 40 1010.9
20260503202137 12 265 4.8 8.0 0.00 0.00 0.00 38 1011.0
20260503201634 12 355 4.8 4.8 0.00 0.00 0.00 40 1010.9
20260503201132 12 335 3.2 3.2 0.00 0.00 0.00 38 1010.8
20260503200627 12 274 3.2 4.8 0.00 0.00 0.00 38 1010.9
20260503200124 12 15 6.4 9.7 0.00 0.00 0.00 39 1010.9
20260503195621 12 356 4.8 4.8 0.00 0.00 0.00 40 1011.1
20260503195118 12 284 3.2 3.2 0.00 0.00 0.00 38 1011.1
20260503194615 12 307 8.0 9.7 0.00 0.00 0.00 39 1011.1
20260503194110 11 163 8.0 11.3 0.00 0.00 0.00 40 1011.2
20260503193607 12 284 4.8 4.8 0.00 0.00 0.00 39 1011.1
20260503193102 12 304 4.8 4.8 0.00 0.00 0.00 39 1011.3
20260503192559 11 335 0.0 1.6 0.00 0.00 0.00 42 1011.2
20260503192054 12 318 6.4 8.0 0.00 0.00 0.00 39 1011.2
20260503191551 11 306 3.2 3.2 0.00 0.00 0.00 41 1011.4
20260503191048 12 348 4.8 8.0 0.00 0.00 0.00 40 1011.4
20260503190545 12 299 4.8 4.8 0.00 0.00 0.00 40 1011.5
20260503190042 12 313 4.8 4.8 0.00 0.00 0.00 39 1011.5
20260503185539 11 319 6.4 8.0 0.00 0.00 0.00 38 1011.4
20260503185038 11 291 4.8 4.8 0.00 0.00 0.00 39 1011.9
20260503184535 11 286 4.8 8.0 0.00 0.00 0.00 41 1011.8
20260503184032 12 301 4.8 8.0 0.00 0.00 0.00 39 1011.6
20260503183528 11 346 6.4 8.0 0.00 0.00 0.00 39 1011.8
20260503183025 11 332 4.8 9.7 0.00 0.00 0.00 39 1011.6
20260503182524 11 321 4.8 4.8 0.00 0.00 0.00 41 1011.9
20260503182021 11 255 4.8 4.8 0.00 0.00 0.00 40 1011.6
20260503181518 11 328 3.2 4.8 0.00 0.00 0.00 40 1011.9
20260503181014 11 268 6.4 11.3 0.00 0.00 0.00 40 1011.5
20260503180512 11 354 1.6 3.2 0.00 0.00 0.00 39 1011.5
20260503180009 11 353 6.4 9.7 0.00 0.00 0.00 42 1011.9
20260503175506 10 315 1.6 1.6 0.00 0.00 0.00 45 1012.0
20260503175003 10 87 3.2 3.2 0.00 0.00 0.00 43 1011.6
20260503174500 9 346 4.8 4.8 0.00 0.00 0.00 45 1012.0
20260503173956 10 331 8.0 11.3 0.00 0.00 0.00 44 1012.0
20260503173452 10 13 9.7 14.5 0.00 0.00 0.00 44 1012.0
20260503172948 9 329 6.4 8.0 0.00 0.00 0.00 43 1012.2
20260503172446 10 290 4.8 8.0 0.00 0.00 0.00 43 1012.0
20260503171942 10 296 1.6 1.6 0.00 0.00 0.00 46 1012.2
20260503171439 10 225 6.4 8.0 0.00 0.00 0.00 43 1012.0
20260503170937 9 151 4.8 8.0 0.00 0.00 0.00 45 1012.1
20260503170433 10 227 6.4 8.0 0.00 0.00 0.00 43 1012.3
20260503150825 5 326 3.2 4.8 0.00 0.00 0.00 59 1013.0
20260503150321 6 48 1.6 3.2 0.00 0.00 0.00 61 1012.9
20260503140246 6 326 4.8 4.8 0.00 0.00 0.00 63 1012.8